Regional Weather Roundup
Issued by NWS

Home | Current Version | Previous Version | Text Only | Print | Product List | Glossary On
Versions: 1 2 3 4 5 6 7 8 9 10 11 12 13 14 15 16 17 18 19 20 21 22 23 24 25 26 27 28 29 30 31 32 33 34 35 36 37 38 39 40 41 42 43 44 45 46 47 48 49 50
000
ASCA44 KEWX 161920
RWRMX

LATIN AMERICA AND CARIBBEAN REGIONAL WEATHER ROUNDUP
NATIONAL WEATHER SERVICE AUSTIN/SAN ANTONIO TX
200 PM CDT TUE SEP 16 2014

NOTE: "FAIR" INDICATED FEW OR NO CLOUDS BELOW 12,000 FEET WITH NO
SIGNIFICANT WEATHER AND/OR OBSTRUCTIONS TO VISIBILITY.

BAJA CALIFORNIA

CITY           SKY/WX    TMP DP  RH WIND       PRES   REMARKS
LORETO           N/A    N/A N/A N/A MISG        N/A
LA PAZ           N/A    N/A N/A N/A MISG        N/A
MEXICALI       PTSUNNY   97  61  30 NE12      29.82  HX  97
S.J. DEL CABO    N/A    N/A N/A N/A MISG        N/A
TIJUANA          N/A    N/A N/A N/A MISG        N/A

NORTHWESTERN MEXICO

CITY           SKY/WX    TMP DP  RH WIND       PRES   REMARKS
CULIACAN       CLOUDY    88  79  74 SE12      29.89  HX 102
DURANGO        PTSUNNY   77  54  44 S2        30.26F
GUAYMAS        CLOUDY    88  79  74 S9        29.72  HX 102
HERMOSILLO       N/A    N/A N/A N/A MISG        N/A
CD. JUAREZ     CLOUDY    72  66  83 E12       30.12
LOS MOCHIS     DRIZZLE   79  72  78 E9        29.82F
OBREGON        PTSUNNY   86  72  62 SE23      29.79  HX  92

NORTHEASTERN MEXICO

CITY           SKY/WX    TMP DP  RH WIND       PRES   REMARKS
CHIHUAHUA      PTSUNNY   77  57  50 E6        30.19
MATAMOROS      PTSUNNY   88  77  70 SE9       30.01  HX 100
MONCLOVA         N/A    N/A N/A N/A MISG        N/A
MONTERREY      PTSUNNY   86  68  54 E6        30.03F
NUEVO LAREDO   PTSUNNY   88  73  62 N5        30.00  HX  96
PIEDRAS NEGRAS PTSUNNY   77  70  78 CALM      30.07
REYNOSA        PTSUNNY   82  75  78 SW6       29.99
SALTILLO       PTSUNNY   75  63  64 NW7       30.25F
TORREON        PTSUNNY   82  59  44 E9        30.12F
CD. VICTORIA   PTSUNNY   84  66  54 W2        30.02

WESTERN MEXICO

CITY           SKY/WX    TMP DP  RH WIND       PRES   REMARKS
AGUASCALIENTES MOSUNNY   77  46  33 E15       30.26
COLIMA         PTSUNNY   81  68  65 CALM      29.99F
DEL BAJIO      MOSUNNY   77  52  41 NE13      30.28F
GUADALAJARA    PTSUNNY   75  57  53 E6        30.16
MANZANILLO     MOSUNNY   90  75  62 SW14      29.80  HX 100
MAZATLAN       MOSUNNY   84  75  74 SW8       29.86F HX  92
P. VALLARTA    MOSUNNY   88  77  70 SW12      29.86F HX 100
URUAPAN        PTSUNNY   73  64  73 S9        30.16F
ZACATECAS      PTSUNNY   73  50  43 SE12      30.30F

CENTRAL MEXICO

CITY           SKY/WX    TMP DP  RH WIND       PRES   REMARKS
CUERNAVACA     PTSUNNY   77  57  50 CALM      30.13F
MEXICO CITY    CLOUDY    66  50  55 E3        30.32F
MORELIA        PTSUNNY   75  57  53 N7        30.22
POZA RICA      CLOUDY    79  75  89 NW9       30.04F
PUEBLA         PTSUNNY   73  57  56 N5        30.35F
QUERETARO      CLOUDY    68  54  60 E16       30.32F
S. LUIS POTOSI CLOUDY    72  55  56 E16       30.28F
TAMPICO        PTSUNNY   82  73  74 NE10      30.00F
TOLUCA         PTSUNNY   64  45  48 E8        30.39F

SOUTHERN MEXICO

CITY           SKY/WX    TMP DP  RH WIND       PRES   REMARKS
ACAPULCO       MOSUNNY   88  75  66 S6        29.86F HX  97
B. DE HUATULCO PTSUNNY   75  68  78 E14       29.99
OAXACA         CLOUDY    72  59  64 SW7       30.22F
P. ESCONDIDO   CLOUDY    82  72  69 SE21      30.04F
VERACRUZ       CLOUDY    81  72  74 N9        29.97F
ZIHUATANEJO    MOSUNNY   90  77  66 SW6       29.86F HX 102

YUCATAN PENINSULA

CITY           SKY/WX    TMP DP  RH WIND       PRES   REMARKS
CAMPECHE       PTSUNNY   90  77  66 E10       29.93F HX 102
CANCUN         PTSUNNY   90  77  66 E14       29.99F HX 102
CHETUMAL       MOSUNNY   88  79  74 E14       29.94F HX 102
CD. DEL CARMEN PTSUNNY   86  73  66 S5        29.94  HX  93
COZUMEL        PTSUNNY   86  75  70 SE10      29.98F HX  95
MERIDA         PTSUNNY   90  72  55 E9        29.97F HX  96
MINATITLAN     PTSUNNY   82  72  69 S7        29.95
TAPACHULA      CLOUDY    84  75  74 CALM      29.98F HX  92
TUX. GUTIERREZ CLOUDY    79  70  73 SE5       30.04F
VILLAHERMOSA   CLOUDY    84  77  79 CALM      29.96F HX  94

CENTRAL AMERICA

CITY           SKY/WX    TMP DP  RH WIND       PRES   REMARKS
BELIZE CITY    MOSUNNY   86  77  74 E8        29.94F HX  97
MANAGUA        PTCLDY    88  75  66 E12       29.89F HX  97

CARIBBEAN

CITY           SKY/WX    TMP DP  RH WIND       PRES   REMARKS
ARUBA          MOSUNNY   90  75  62 E16       29.83F HX 100
CURACAO        MOSUNNY   88  77  70 E14       29.86F HX 100
KINGSTON       MOSUNNY   88  75  66 S16       29.92F HX  97
NASSAU         MOSUNNY   88  72  58 SE7       30.01F HX  94
SAN JUAN       MOSUNNY   86  75  70 NE15      29.94F HX  95
SANTO DOMINGO  MOSUNNY   88  73  62 S7        29.89F HX  96
ST. CROIX      MOSUNNY   88  75  66 E9        29.95F HX  97
ST. KITTS      MOSUNNY   86  73  66 N12       29.94S HX  93

$$




USA.gov is the U.S. government's official web portal to all federal, state and local government web resources and services.